2023/02/20 00:00:00,65.8, 1.0
2023/02/20 00:10:00,65.6, 1.1
2023/02/20 00:20:00,65.6, 1.2
2023/02/20 00:30:00,65.5, 1.0
2023/02/20 00:40:00,65.5, 1.1
2023/02/20 00:50:00,65.5, 1.1
2023/02/20 01:00:00,65.5, 1.2
2023/02/20 01:10:00,65.5, 1.1
2023/02/20 01:20:00,65.5, 1.1
2023/02/20 01:30:00,65.5, 1.0
2023/02/20 01:40:00,65.6, 0.9
2023/02/20 01:50:00,65.5, 0.8
2023/02/20 02:00:00,65.4, 0.8
2023/02/20 02:10:00,65.4, 0.9
2023/02/20 02:20:00,65.4, 0.8
2023/02/20 02:30:00,65.4, 0.8
2023/02/20 02:40:00,65.6, 0.9
2023/02/20 02:50:00,66.6, 0.2
2023/02/20 03:00:00,67.4, 0.4
2023/02/20 03:10:00,67.5, 0.3
2023/02/20 03:20:00,67.5, 0.2
2023/02/20 03:30:00,67.4, 0.3
2023/02/20 03:40:00,67.4, 0.3
2023/02/20 03:50:00,67.5, 0.2
2023/02/20 04:00:00,67.5, 0.0
2023/02/20 04:10:00,67.6, 0.4
2023/02/20 04:20:00,67.6, 0.2
2023/02/20 04:30:00,67.7, 0.0
2023/02/20 04:40:00,67.7, 0.0
2023/02/20 04:50:00,68.0,-0.2
2023/02/20 05:00:00,68.1, 0.3
2023/02/20 05:10:00,68.1, 0.2
2023/02/20 05:20:00,67.9, 0.1
2023/02/20 05:30:00,68.0,-0.1
2023/02/20 05:40:00,68.0, 0.1
2023/02/20 05:50:00,68.1, 0.0
2023/02/20 06:00:00,68.3,-0.2
2023/02/20 06:10:00,68.2,-0.2
2023/02/20 06:20:00,68.2,-0.2
2023/02/20 06:30:00,68.3,-0.1
2023/02/20 06:40:00,68.6,-0.4
2023/02/20 06:50:00,68.7,-0.2
2023/02/20 07:00:00,68.7,-0.4
2023/02/20 07:10:00,68.9,-0.4
2023/02/20 07:20:00,68.8,-0.3
2023/02/20 07:30:00,68.9,-0.6
2023/02/20 07:40:00,69.3,-0.7
2023/02/20 07:50:00,69.6,-0.6
2023/02/20 08:00:00,69.8,-0.5
2023/02/20 08:10:00,70.2,-0.6
2023/02/20 08:20:00,70.5,-0.4
2023/02/20 08:30:00,70.5, 0.0
2023/02/20 08:40:00,70.6,-0.3
2023/02/20 08:50:00,70.6,-0.4
2023/02/20 09:00:00,70.7,-0.4
2023/02/20 09:10:00,70.7, 0.1
2023/02/20 09:20:00,70.9,-0.2
2023/02/20 09:30:00,71.4,-0.5
2023/02/20 09:40:00,71.7,-0.2
2023/02/20 09:50:00,71.9,-0.5
2023/02/20 10:00:00,71.9,-0.9
2023/02/20 10:10:00,72.0,-1.0
2023/02/20 10:20:00,71.9, 0.4
2023/02/20 10:30:00,71.8, 0.5
2023/02/20 10:40:00,71.6, 1.1
2023/02/20 10:50:00,71.9, 0.0
2023/02/20 11:00:00,71.8, 0.7
2023/02/20 11:10:00,71.7, 0.2
2023/02/20 11:20:00,71.8, 0.4
2023/02/20 11:30:00,71.9,-0.5
2023/02/20 11:40:00,71.6, 1.7
2023/02/20 11:50:00,71.6, 2.6
2023/02/20 12:00:00,71.8, 0.7
2023/02/20 12:10:00,71.8,-0.4
2023/02/20 12:20:00,71.5, 0.7
2023/02/20 12:30:00,71.6, 0.2
2023/02/20 12:40:00,72.1,-0.9
2023/02/20 12:50:00,71.9, 1.5
2023/02/20 13:00:00,71.8, 1.0
2023/02/20 13:10:00,71.8, 1.6
2023/02/20 13:20:00,71.5, 3.4
2023/02/20 13:30:00,70.9, 5.4
2023/02/20 13:40:00,71.7, 2.4
2023/02/20 13:50:00,71.7, 1.3
2023/02/20 14:00:00,71.6, 1.7
2023/02/20 14:10:00,71.6, 1.5
2023/02/20 14:20:00,72.0,-0.4
2023/02/20 14:30:00,72.0,-0.8
2023/02/20 14:40:00,72.1,-0.6
2023/02/20 14:50:00,72.3,-0.8
2023/02/20 15:00:00,72.6,-1.5
2023/02/20 15:10:00,72.9,-1.2
2023/02/20 15:20:00,72.8,-1.1
2023/02/20 15:30:00,72.8,-1.2
2023/02/20 15:40:00,72.7,-1.0
2023/02/20 15:50:00,72.9,-1.2
2023/02/20 16:00:00,72.8,-0.4
2023/02/20 16:10:00,72.9,-1.2
2023/02/20 16:20:00,73.0,-1.7
2023/02/20 16:30:00,73.5,-2.4
2023/02/20 16:40:00,74.4,-2.3
2023/02/20 16:50:00,76.0,-2.5
2023/02/20 17:00:00,77.6,-2.5
2023/02/20 17:10:00,78.1,-2.5
2023/02/20 17:20:00,78.3,-2.7
2023/02/20 17:30:00,79.5,-2.7
2023/02/20 17:40:00,81.1,-2.8
2023/02/20 17:50:00,82.7,-2.8
2023/02/20 18:00:00,83.8,-2.8
2023/02/20 18:10:00,85.0,-3.0
2023/02/20 18:20:00,86.0,-2.8
2023/02/20 18:30:00,86.9,-3.1
2023/02/20 18:40:00,88.2,-2.9
2023/02/20 18:50:00,89.6,-3.1
2023/02/20 19:00:00,90.1,-3.0
2023/02/20 19:10:00,90.9,-3.2
2023/02/20 19:20:00,91.5,-3.1
2023/02/20 19:30:00,91.6,-3.3
2023/02/20 19:40:00,91.7,-3.2
2023/02/20 19:50:00,92.1,-3.1
2023/02/20 20:00:00,92.5,-3.2
2023/02/20 20:10:00,92.5,-3.2
2023/02/20 20:20:00,92.4,-3.5
2023/02/20 20:30:00,92.4,-3.4
2023/02/20 20:40:00,92.7,-3.7
2023/02/20 20:50:00,92.8,-3.5
2023/02/20 21:00:00,93.2,-3.5
2023/02/20 21:10:00,93.4,-3.4
2023/02/20 21:20:00,93.8,-3.4
2023/02/20 21:30:00,94.5,-3.9
2023/02/20 21:40:00,95.1,-3.7
2023/02/20 21:50:00,95.6,-4.0
2023/02/20 22:00:00,95.6,-3.8
2023/02/20 22:10:00,95.9,-3.9
2023/02/20 22:20:00,95.8,-4.1
2023/02/20 22:30:00,95.7,-4.0
2023/02/20 22:40:00,95.7,-4.3
2023/02/20 22:50:00,96.0,-4.3
2023/02/20 23:00:00,96.0,-4.5
2023/02/20 23:10:00,96.1,-4.4
2023/02/20 23:20:00,96.1,-4.2
2023/02/20 23:30:00,96.0,-4.3
2023/02/20 23:40:00,96.1,-4.2
2023/02/20 23:50:00,96.3,-4.3
